User: anonymous   Login
Location: Unspecified
(0.0000°N, 0.0000°E)
Time: 14:45:17
(UTC+02:00)
Language:

Cosmos 1898 Rocket - Orbit

View from above orbital plane
View from above orbital plane
View from above satellite
View from above satellite

Ground track
Ground track

The orbit data is extracted from the following two-line orbital elements,

1 18586U 87098B   14296.27850856  .00000374  00000-0  13610-3 0  1577
2 18586 074.0069 277.3358 0021364 206.3536 254.3985 14.36475188408366
Epoch (UTC): 23 October 2014 06:41:03
Eccentricity: 0.0021364
inclination: 74.0069°
perigee height: 755 km
apogee height: 785 km
right ascension of ascending node: 277.3358°
argument of perigee: 206.3536°
revolutions per day: 14.36475188
mean anomaly at epoch: 254.3985°
orbit number at epoch: 40836

The dashed part of the orbit path shows where the satellite is in the earth's shadow,  

DLR